DELTA 1 DEB, 21470

Orbit data source: Space-Track

DELTA 1 DEB, 21470 is space debris in SSO originally from a launch on Thu, 12 Jun 1975 UTC launched from the Air Force Western Test Range (AFWTR). Debris objects in space refer to the collection of defunct objects orbiting the Earth. Examples of debris include non-operational satellites, rocket bodies, and fragments generated from explosions, collisions, or faulty payload assembly.

Loading next visibility...
Identifier
21470, 1975-052FE
Orbit
SSO
Country
Flag of USUS
Related business
Manufacturer
Unknown
Mission
Spacecraft
Bus & Motor
Unknown
Mass
Unknown
Launch date (UTC)
1975-06-12 (51 years ago)
Launch vehicle
Unknown
Launch site
Air Force Western Test Range (AFWTR)
Object type
Payload
Rocket body
Debris
Shape & HBR
Unknown shape, 0.1 m
Radar Cross Section
Small (<0.1 m²)

Expand to show TLE details & history
Last TLE update: 10 hours ago

TLE from 10 hours ago
0 DELTA 1 DEB
1 21470U 75052FE  25353.94194940  .00000183  00000-0  34686-3 0  9993
2 21470  99.6940 160.8674 0098543 351.5787 166.7065 13.49914067702666
Epoch: 2025-12-19T22:36Z
TLE epoch observation values (Epoch: 2025-12-19T22:36:24.428Z)
Latitude
21.14653°
Longitude
-83.24094°
Altitude
1,146.565 km
Speed
7.246 km/s
True Right ascension
22h 58m 32s
True Declination
21° 02' 13"
Sunlit
Object was in daylight at epoch
Visualization orbit readout
Latitude
Unknown
Longitude
Unknown
Altitude
Unknown
Speed
Unknown
Apparent Right ascension
Unknown
Apparent Declination
Unknown
Sunlit
N/A
Visualization observer readout
Local Sidereal Time
07:08:28
Azimuth
Unknown
Elevation
Unknown
Doppler factor
Unknown
Orbital elements
Apogee altitude
1,143.27 km
Perigee altitude
996.481 km
Semi-major axis
7,448.012 km
Eccentricity
0.00985
Inclination
99.694°
RAAN
160.8674°
Arg. of periapsis
351.5787°
True anomaly
166.96307°
Mean anomaly
166.7065°
Eccentric anomaly
166.83509°
Mean motion
3.37662 °/min
Orbital period
106.62 mins
BSTAR
0.00034686
Loading maneuver chart data...
Computing Atmospheric mass density...
Loading historical data...
Loading historical data...
Loading historical data...
Loading historical data...
Loading historical data...
Loading historical data...
Loading historical data...

Documentation

Showing up to 5 results
|